Weather Roundup
Issued by NWS Springfield, MO

Home | Current Version | Previous Version | Text Only | Print | Product List | Glossary On
Versions: 1 2 3 4 5 6 7 8 9 10 11 12 13 14 15 16 17 18 19 20 21 22 23 24 25 26 27 28 29 30 31 32 33 34 35 36 37 38 39 40 41 42 43 44 45 46 47 48 49 50
000
NZUS99 KSGF 291159
HRRSGF

HOURLY WEATHER
NATIONAL WEATHER SERVICE SPRINGFIELD MO
700 AM CDT TUE JUL 29 2014

......SGF CWA......

CITY           SKY/WX    TMP DP  RH WIND       PRES   REMARKS
SPRINGFIELD    CLEAR     60  54  80 CALM      30.17S
6HR MIN TEMP:  58; 6HR MAX TEMP:  67;

JOPLIN         CLEAR     58  57  97 CALM      30.18R
6HR MIN TEMP:  58; 6HR MAX TEMP:  65;

WEST PLAINS    CLEAR     57  53  86 N3        30.18R
6HR MIN TEMP:  55; 6HR MAX TEMP:  62;

ROLLA          CLEAR     56  51  84 CALM      30.16R
6HR MIN TEMP:  53; 6HR MAX TEMP:  58;

OSAGE BEACH    CLEAR     55  52  88 CALM      30.17R
BRANSON        PTCLDY    57  57 100 S3        30.18S

......SURROUNDING SGF CWA......

CITY           SKY/WX    TMP DP  RH WIND       PRES   REMARKS
CHANUTE        CLOUDY    65  60  84 CALM      30.18S
PARSONS        MOCLDY    62  59  90 CALM      30.18S
COFFEYVILLE    PTCLDY    62  60  93 N3        30.16S
EMPORIA        CLOUDY    63  59  87 CALM      30.19R
SILOAM SPRINGS CLEAR     61  52  72 CALM      30.18S
HARRISON AR    CLEAR     59  58  96 CALM      30.18S
NEAR YELLVILLE CLEAR     61  55  82 CALM      30.17R

......KANSAS AND MISSOURI......

CITY           SKY/WX    TMP DP  RH WIND       PRES   REMARKS
KANSAS CTY INT PTCLDY    59  58  96 NW6       30.18R
DOWNTOWN KC    CLEAR     63  59  87 NW3       30.17R
COLUMBIA       CLEAR     59  56  89 NW3       30.17R
SEDALIA        CLEAR     60  55  83 CALM      30.17R
ST JOSEPH      CLEAR     55  54  96 CALM      30.18S
ST LOUIS       SUNNY     62  55  77 CALM      30.14S
SPIRIT OF STL  FOG       54  53  97 W3        30.14R VSB 1/4
KIRKSVILLE     CLEAR     56  54  93 CALM      30.17R
WICHITA        PTCLDY    65  57  75 E7        30.18S
TOPEKA         CLOUDY    63  59  87 CALM      30.19S
OLATHE         CLEAR     61  58  90 CALM      30.18R

......TENNESSEE......

CITY           SKY/WX    TMP DP  RH WIND       PRES   REMARKS
MEMPHIS        PTCLDY    69  58  67 N8        30.11R
NASHVILLE      MOSUNNY   62  51  67 N9        30.08R

......ARKANSAS.......

CITY           SKY/WX    TMP DP  RH WIND       PRES   REMARKS
FAYETTEVILLE   CLEAR     56  56 100 CALM      30.17S
FT SMITH       CLEAR     66  61  84 CALM      30.14R
LITTLE ROCK    MOCLDY    69  62  78 N3        30.13R

......OKLAHOMA.......

CITY           SKY/WX    TMP DP  RH WIND       PRES   REMARKS
TULSA          PTCLDY    64  61  90 NW5       30.14S
PONCA CITY     CLEAR     63  60  90 N3        30.16R
MCALESTER      PTCLDY    63  61  93 CALM      30.14R
OKLAHOMA CITY  CLOUDY    72  65  78 CALM      30.16R

......IOWA............

CITY           SKY/WX    TMP DP  RH WIND       PRES   REMARKS
DES MOINES     CLEAR     59  55  87 NW3       30.15S
QUAD CITIES    SUNNY     56  53  90 W5        30.11R

......ILLINOIS........

CITY           SKY/WX    TMP DP  RH WIND       PRES   REMARKS
QUINCY         CLEAR     57  55  93 SW3       30.14S
CHICAGO        MOSUNNY   62  51  67 W8        30.04R



USA.gov is the U.S. government's official web portal to all federal, state and local government web resources and services.